Weather History for McGuire AFB, NJ

Change the Weather History Date:

Friday, September 5, 2014

  Actual Average Record
Temperature  
Mean Temperature 78 °F -  
Max Temperature 88 °F 79 °F 88 °F (2008)
Min Temperature 67 °F 59 °F 50 °F (2000)
Cooling Degree Days 12    
Growing Degree Days 28 (Base 50)    
Moisture  
Dew Point 72 °F    
Average Humidity 93    
Maximum Humidity 100    
Minimum Humidity 62    
Precipitation  
Precipitation 0.00 in - - ()
Sea Level Pressure  
Sea Level Pressure 30.12 in    
Wind  
Wind Speed 3 mph (SE)    
Max Wind Speed 10 mph    
Max Gust Speed -    
Visibility 6 miles    
Events Fog    
Averages and records for this station are not official NWS values.
T = Trace of Precipitation, MM = Missing Value Source: NWS Daily Summary

Daily Weather History Graph

Daily Weather History Graph

Search for Another Location

Airport:

Trip Planner

Search our weather history database for the weather conditions in past years. The results will help you decide how hot, cold, wet, or windy it might be!

Date:

Astronomy

Sep. 05, 2014 Rise Set
Actual Time 6:29 AM EDT 7:23 PM EDT
Civil Twilight 6:02 AM EDT 7:51 PM EDT
Nautical Twilight 5:29 AM EDT 8:23 PM EDT
Astronomical Twilight 4:55 AM EDT 8:57 PM EDT
Moon 4:50 PM EDT (9/5) 2:21 AM EDT (9/5)
Length of Visible Light 13h 48m
Length of Day
12h 53m
Waxing Gibbous, 83% of the Moon is Illuminated
Sep 5
Waxing Gibbous
Sep 8
Full
Sep 15
Last Quarter
Sep 24
New
Oct 1
First Quarter

Hourly Weather History & Observations

Time (EDT) Temp. Heat Index Dew Point Humidity Pressure Visibility Wind Dir Wind Speed Gust Speed Precip Events Conditions
12:58 AM 67.6 °F - 67.3 °F 99% 30.14 in 10.0 mi Calm Calm - N/A   Clear
1:58 AM 67.5 °F - 67.3 °F 99% 30.14 in 10.0 mi Calm Calm - N/A   Clear
2:19 AM 68.0 °F - 68.0 °F 100% 30.13 in 10.0 mi Calm Calm - N/A   Mostly Cloudy
2:34 AM 69.8 °F - 69.8 °F 100% 30.14 in 10.0 mi WNW 3.5 mph - N/A   Overcast
2:58 AM 69.6 °F - 69.6 °F 100% 30.16 in 10.0 mi ENE 2.3 mph - N/A   Overcast
3:23 AM 68.0 °F - 68.0 °F 100% 30.14 in 10.0 mi ESE 1.2 mph - N/A   Overcast
3:33 AM 68.0 °F - 68.0 °F 100% 30.14 in 10.0 mi East 1.2 mph - N/A   Overcast
3:43 AM 68.0 °F - 68.0 °F 100% 30.14 in 10.0 mi East 3.5 mph - N/A   Overcast
3:58 AM 68.7 °F - 68.7 °F 100% 30.14 in 10.0 mi East 2.3 mph - N/A   Overcast
4:03 AM 68.0 °F - 68.0 °F 100% 30.14 in 10.0 mi ENE 3.5 mph - N/A   Overcast
4:08 AM 68.0 °F - 68.0 °F 100% 30.14 in 10.0 mi ENE 2.3 mph - N/A   Overcast
4:13 AM 68.0 °F - 68.0 °F 100% 30.14 in 10.0 mi ESE 1.2 mph - N/A   Overcast
4:38 AM 68.0 °F - 68.0 °F 100% 30.12 in 9.0 mi SSE 2.3 mph - N/A   Overcast
4:43 AM 68.0 °F - 68.0 °F 100% 30.11 in 2.5 mi SSE 3.5 mph - N/A   Overcast
4:48 AM 68.0 °F - 68.0 °F 100% 30.11 in 1.2 mi SSE 2.3 mph - N/A   Overcast
4:53 AM 68.0 °F - 68.0 °F 100% 30.11 in 1.0 mi SSE 2.3 mph - N/A   Overcast
4:58 AM 68.7 °F - 68.7 °F 100% 30.12 in 0.8 mi SSE 3.5 mph - N/A   Overcast
5:03 AM 69.8 °F - 69.8 °F 100% 30.11 in 0.8 mi SE 3.5 mph - N/A   Overcast
5:08 AM 69.8 °F - 69.8 °F 100% 30.11 in 0.8 mi Calm Calm - N/A   Overcast
5:13 AM 69.8 °F - 69.8 °F 100% 30.12 in 0.8 mi Variable 1.2 mph - N/A   Overcast
5:28 AM 69.8 °F - 69.8 °F 100% 30.12 in 0.5 mi Calm Calm - N/A Fog Fog
5:33 AM 69.8 °F - 69.8 °F 100% 30.12 in 0.5 mi SE 2.3 mph - N/A Fog Fog
5:43 AM 69.8 °F - 69.8 °F 100% 30.12 in 0.5 mi NE 2.3 mph - N/A Fog Fog
5:48 AM 69.8 °F - 69.8 °F 100% 30.13 in 0.2 mi NE 2.3 mph - N/A Fog Fog
5:58 AM 69.6 °F - 69.6 °F 100% 30.14 in 0.2 mi NE 2.3 mph - N/A Fog Fog
6:23 AM 69.8 °F - 69.8 °F 100% 30.14 in 0.2 mi East 2.3 mph - N/A Fog Fog
6:58 AM 70.0 °F - 70.0 °F 100% 30.15 in 0.2 mi ESE 2.3 mph - N/A Fog Fog
7:58 AM 71.1 °F - 71.1 °F 100% 30.16 in 0.2 mi ENE 3.5 mph - N/A Fog Fog
8:13 AM 71.6 °F - 71.6 °F 100% 30.16 in 0.2 mi East 2.3 mph - N/A Fog Fog
8:18 AM 71.6 °F - 71.6 °F 100% 30.16 in 0.2 mi East 3.5 mph - N/A Fog Fog
8:23 AM 71.6 °F - 71.6 °F 100% 30.16 in 0.2 mi East 3.5 mph - N/A Fog Fog
8:33 AM 71.6 °F - 71.6 °F 100% 30.16 in 0.2 mi East 3.5 mph - N/A Fog Fog
8:38 AM 71.6 °F - 71.6 °F 100% 30.16 in 0.2 mi ESE 3.5 mph - N/A Fog Fog
8:48 AM 73.4 °F - 73.4 °F 100% 30.16 in 0.5 mi SE 1.2 mph - N/A Fog Fog
8:53 AM 73.4 °F - 73.4 °F 100% 30.16 in 0.8 mi SE 3.5 mph - N/A   Mist
8:58 AM 73.4 °F - 73.4 °F 100% 30.16 in 1.2 mi Variable 3.5 mph - N/A   Overcast
9:03 AM 73.4 °F - 73.4 °F 100% 30.16 in 2.5 mi SE 3.5 mph - N/A   Overcast
9:13 AM 73.4 °F - 73.4 °F 100% 30.16 in 3.0 mi East 2.3 mph - N/A   Overcast
9:58 AM 75.2 °F - 75.2 °F 100% 30.17 in 10.0 mi SSE 3.5 mph - N/A   Overcast
10:03 AM 75.2 °F - 75.2 °F 100% 30.16 in 10.0 mi SSE 2.3 mph - N/A   Overcast
10:08 AM 75.2 °F - 75.2 °F 100% 30.15 in 10.0 mi SSE 3.5 mph - N/A   Overcast
10:13 AM 77.0 °F - 77.0 °F 100% 30.15 in 10.0 mi South 2.3 mph - N/A   Overcast
10:28 AM 77.0 °F - 77.0 °F 100% 30.15 in 10.0 mi SSE 3.5 mph - N/A   Overcast
10:33 AM 77.0 °F - 77.0 °F 100% 30.15 in 10.0 mi Variable 4.6 mph - N/A   Overcast
10:58 AM 80.8 °F 85.9 °F 74.1 °F 80% 30.15 in 10.0 mi SSW 6.9 mph - N/A   Overcast
11:18 AM 80.6 °F 85.4 °F 73.4 °F 79% 30.14 in 10.0 mi South 5.8 mph - N/A   Overcast
11:58 AM 82.8 °F 89.0 °F 73.6 °F 74% 30.14 in 10.0 mi SW 6.9 mph - N/A   Mostly Cloudy
12:03 PM 82.4 °F 88.2 °F 73.4 °F 74% 30.13 in 10.0 mi South 5.8 mph - N/A   Mostly Cloudy
12:13 PM 84.2 °F 90.9 °F 73.4 °F 70% 30.12 in 10.0 mi SW 5.8 mph - N/A   Mostly Cloudy
12:58 PM 84.2 °F 91.2 °F 73.9 °F 71% 30.12 in 10.0 mi SW 5.8 mph - N/A   Scattered Clouds
1:58 PM 87.1 °F 95.9 °F 74.3 °F 66% 30.10 in 10.0 mi WNW 1.2 mph - N/A   Mostly Cloudy
2:13 PM 87.8 °F 95.6 °F 73.4 °F 62% 30.08 in 10.0 mi South 5.8 mph - N/A   Overcast
2:58 PM 88.3 °F 97.9 °F 74.7 °F 64% 30.07 in 10.0 mi South 8.1 mph - N/A   Mostly Cloudy
3:58 PM 87.8 °F 97.6 °F 75.2 °F 66% 30.07 in 10.0 mi SSW 10.4 mph - N/A   Partly Cloudy
4:58 PM 87.4 °F 96.2 °F 74.3 °F 65% 30.06 in 10.0 mi SW 10.4 mph - N/A   Clear
5:58 PM 85.6 °F 93.0 °F 73.4 °F 67% 30.05 in 10.0 mi SW 10.4 mph - N/A   Clear
6:58 PM 81.5 °F 86.9 °F 73.6 °F 77% 30.03 in 10.0 mi South 4.6 mph - N/A   Clear
7:58 PM 79.2 °F - 75.2 °F 88% 30.03 in 10.0 mi SSW 6.9 mph - N/A   Clear
8:58 PM 77.0 °F - 75.0 °F 94% 30.03 in 10.0 mi South 6.9 mph - N/A   Clear
9:58 PM 76.1 °F - 75.6 °F 98% 30.03 in 10.0 mi SSW 5.8 mph - N/A   Clear
10:58 PM 75.4 °F - 74.8 °F 98% 30.02 in 10.0 mi SSW 8.1 mph - N/A   Clear
11:58 PM 74.7 °F - 74.3 °F 99% 30.02 in 10.0 mi SSW 5.8 mph - N/A   Clear